Tracking 29892 objects as of 21-Nov-2024
HD Live streaming from Space Station
objects crossing your sky now

CZ-3 R/B

Track CZ-3 R/B now!
10-day predictions


NORAD ID: 29517
Int'l Code: 2006-048B
Perigee: 518.4 km
Apogee: 10,057.2 km
Inclination: 28.3 °
Period: 208.8 minutes
Semi major axis: 11658 km
RCS: 12.1222 m2 (large)
Launch date: October 28, 2006
Source: People's Republic of China (PRC)
Launch site: Xichang Space Center, China (XSC)

Note: This is a ROCKET BODY
Your satellite tracking list
Your tracking list is empty




NASA's NSSDC Master Catalog

Two Line Element Set (TLE):
1 29517U 06048B   24325.81008642  .00000593  00000-0  63427-3 0  9999
2 29517  28.2784 246.0981 4090790 313.4225  19.0476  6.89639923354257
Source of the keplerian elements: AFSPC